Simultaneous Nadir Overpasses (SNOs) Predictions

Prediction of SNOs between GOES-15 and TERRA Satellite Orbit:

Table of predicted SNOs for the next 14.0 days since TLE Epoch: 11/14/2015
Index Date Time (GOES-15) GOES-15 Lat,Lon TERRA Lat,Lon Distance(km) Time Diff (sec)
1 11/15/2015 19:19:35 -0.22,-135.42 -0.79,-132.73 306.37 80
2 11/16/2015 07:43:39 0.20,-135.40 -0.33,-137.91 285.81 80
3 11/18/2015 07:28:47 0.20,-135.42 0.28,-134.95 53.05 80
4 11/20/2015 07:16:36 0.20,-135.44 0.96,-132.00 391.37 80
5 11/20/2015 19:40:31 -0.19,-135.47 0.16,-137.15 191.39 80
6 11/22/2015 19:25:39 -0.19,-135.48 -0.48,-134.20 146.42 80
7 11/23/2015 07:49:42 0.17,-135.46 -0.68,-139.37 445.32 80
8 11/24/2015 19:13:27 -0.19,-135.49 -1.13,-131.24 483.66 80
9 11/25/2015 07:37:30
